Location: *
(50.3440°N, 18.6237°E)
Time: 17:26:35
(UTC+00:00)

Cosmos 1500 - Pass Details

Date: 30 November 2020
Orbit: 498 x 519 km, 82.5° (Epoch: 23 January)

Event Time Altitude Azimuth Distance (km) Brightness Sun altitude
Rises 17:17:22 0° 346° (NNW) 2,636 6.9 -23.3°
Reaches altitude 10° 17:19:31 10° 343° (NNW) 1,748 6.0 -23.7°
Maximum altitude 17:23:17 59° 264° (W) 603 3.7 -24.3°
Drops below altitude 10° 17:27:03 10° 185° (S) 1,743 6.0 -24.9°
Sets 17:29:11 0° 181° (S) 2,628 6.9 -25.2°
